Time,TemperatureF,DewpointF,PressureIn,WindDirection,WindDirectionDegrees,WindSpeedMPH,WindSpeedGustMPH,Humidity,HourlyPrecipIn,Conditions,Clouds,dailyrainin,SoftwareType,DateUTC
2013-12-17 00:01:00,-3.8,-6.5,30.68,WNW,293,0.0,0.0,88,0.00,FEW,,0.00,WeatherDisplay:10.37,2013-12-17 05:01:00,
2013-12-17 00:03:00,-3.8,-6.5,30.67,WNW,293,0.0,0.0,88,0.00,CLR,,0.00,WeatherDisplay:10.37,2013-12-17 05:03:00,
2013-12-17 00:08:00,-4.0,-6.9,30.67,WNW,293,0.0,0.0,87,0.00,CLR,,0.00,WeatherDisplay:10.37,2013-12-17 05:08:00,
2013-12-17 00:13:00,-3.9,-6.8,30.67,WNW,293,0.0,0.0,87,0.00,CLR,,0.00,WeatherDisplay:10.37,2013-12-17 05:13:00,
2013-12-17 00:18:00,-4.4,-7.5,30.67,WNW,293,0.0,0.0,86,0.00,CLR,,0.00,WeatherDisplay:10.37,2013-12-17 05:18:00,
2013-12-17 00:23:00,-5.2,-8.6,30.67,WNW,293,0.0,0.0,85,0.00,CLR,,0.00,WeatherDisplay:10.37,2013-12-17 05:23:00,
2013-12-17 00:28:00,-5.7,-9.0,30.67,WNW,293,0.0,0.0,85,0.00,CLR,,0.00,WeatherDisplay:10.37,2013-12-17 05:28:00,
2013-12-17 00:33:00,-5.8,-8.9,30.67,WNW,293,0.0,0.0,86,0.00,CLR,,0.00,WeatherDisplay:10.37,2013-12-17 05:33:00,
2013-12-17 00:38:00,-4.9,-7.5,30.67,WNW,293,0.0,0.0,88,0.00,CLR,,0.00,WeatherDisplay:10.37,2013-12-17 05:38:00,
2013-12-17 00:43:00,-4.3,-7.0,30.66,WNW,293,0.0,0.0,88,0.00,CLR,,0.00,WeatherDisplay:10.37,2013-12-17 05:43:00,
2013-12-17 00:48:00,-4.3,-7.2,30.67,WNW,293,0.0,0.0,87,0.00,CLR,,0.00,WeatherDisplay:10.37,2013-12-17 05:48:00,
2013-12-17 00:53:00,-5.0,-8.1,30.67,WNW,293,0.0,0.0,86,0.00,CLR,,0.00,WeatherDisplay:10.37,2013-12-17 05:53:00,
2013-12-17 00:58:00,-5.6,-8.9,30.67,WNW,293,0.0,0.0,85,0.00,CLR,,0.00,WeatherDisplay:10.37,2013-12-17 05:58:00,
2013-12-17 01:03:00,-5.9,-9.0,30.67,WNW,293,0.0,0.0,86,0.00,CLR,,0.00,WeatherDisplay:10.37,2013-12-17 06:03:00,
2013-12-17 01:08:00,-6.5,-9.8,30.66,WNW,293,0.0,0.0,85,0.00,CLR,,0.00,WeatherDisplay:10.37,2013-12-17 06:08:00,
2013-12-17 01:13:00,-7.3,-10.9,30.66,WNW,293,0.0,0.0,84,0.00,CLR,,0.00,WeatherDisplay:10.37,2013-12-17 06:13:00,
2013-12-17 01:18:00,-7.5,-10.8,30.66,WNW,293,0.0,0.0,85,0.00,CLR,,0.00,WeatherDisplay:10.37,2013-12-17 06:18:00,
2013-12-17 01:23:00,-6.8,-9.7,30.66,WNW,293,0.0,0.0,87,0.00,CLR,,0.00,WeatherDisplay:10.37,2013-12-17 06:23:00,
2013-12-17 01:28:00,-5.6,-8.2,30.65,ESE,110,1.2,0.0,88,0.00,CLR,,0.00,WeatherDisplay:10.37,2013-12-17 06:28:00,
2013-12-17 01:33:00,-5.1,-7.7,30.65,ESE,110,0.0,0.0,88,0.00,CLR,,0.00,WeatherDisplay:10.37,2013-12-17 06:33:00,
2013-12-17 01:38:00,-6.0,-9.6,30.64,ESE,110,0.0,0.0,84,0.00,CLR,,0.00,WeatherDisplay:10.37,2013-12-17 06:38:00,
2013-12-17 01:43:00,-7.2,-11.0,30.65,ESE,110,0.0,0.0,83,0.00,CLR,,0.00,WeatherDisplay:10.37,2013-12-17 06:43:00,
2013-12-17 01:48:00,-8.1,-11.9,30.64,ESE,110,0.0,0.0,83,0.00,CLR,,0.00,WeatherDisplay:10.37,2013-12-17 06:48:00,
2013-12-17 01:53:00,-8.0,-11.3,30.64,ESE,110,0.0,0.0,85,0.00,CLR,,0.00,WeatherDisplay:10.37,2013-12-17 06:53:00,
2013-12-17 01:58:00,-7.7,-10.8,30.64,ESE,111,0.0,0.0,86,0.00,CLR,,0.00,WeatherDisplay:10.37,2013-12-17 06:58:00,
2013-12-17 02:03:00,-7.4,-10.2,30.64,ESE,110,0.0,0.0,87,0.00,SCT,,0.00,WeatherDisplay:10.37,2013-12-17 07:03:00,
2013-12-17 02:08:00,-6.9,-9.8,30.64,ESE,110,0.0,0.0,87,0.00,SCT,,0.00,WeatherDisplay:10.37,2013-12-17 07:08:00,
2013-12-17 02:13:00,-6.9,-10.0,30.64,ESE,110,0.0,0.0,86,0.00,SCT,,0.00,WeatherDisplay:10.37,2013-12-17 07:13:00,
2013-12-17 02:18:00,-6.8,-9.9,30.64,ESE,110,0.0,0.0,86,0.00,SCT,,0.00,WeatherDisplay:10.37,2013-12-17 07:18:00,
2013-12-17 02:23:00,-6.2,-9.1,30.64,ESE,108,0.0,0.0,87,0.00,SCT,,0.00,WeatherDisplay:10.37,2013-12-17 07:23:00,
2013-12-17 02:28:00,-4.7,-7.1,30.64,ESE,108,0.0,0.0,89,0.00,SCT,,0.00,WeatherDisplay:10.37,2013-12-17 07:28:00,
2013-12-17 02:33:00,-4.9,-8.0,30.64,ESE,108,0.0,0.0,86,0.00,SCT,,0.00,WeatherDisplay:10.37,2013-12-17 07:33:00,
2013-12-17 02:38:00,-5.5,-8.8,30.63,ESE,108,0.0,0.0,85,0.00,SCT,,0.00,WeatherDisplay:10.37,2013-12-17 07:38:00,
2013-12-17 02:43:00,-5.5,-8.6,30.63,ESE,108,0.0,0.0,86,0.00,SCT,,0.00,WeatherDisplay:10.37,2013-12-17 07:43:00,
2013-12-17 02:48:00,-5.6,-8.7,30.63,ESE,108,0.0,0.0,86,0.00,SCT,,0.00,WeatherDisplay:10.37,2013-12-17 07:48:00,
2013-12-17 02:53:00,-6.1,-9.4,30.64,ESE,108,0.0,0.0,85,0.00,SCT,,0.00,WeatherDisplay:10.37,2013-12-17 07:53:00,
2013-12-17 02:58:00,-6.5,-9.8,30.63,ESE,108,0.0,0.0,85,0.00,SCT,,0.00,WeatherDisplay:10.37,2013-12-17 07:58:00,
2013-12-17 03:03:00,-6.6,-9.9,30.63,ESE,108,0.0,0.0,85,0.00,BKN,,0.00,WeatherDisplay:10.37,2013-12-17 08:03:00,
2013-12-17 03:08:00,-5.9,-8.8,30.63,ESE,108,0.0,0.0,87,0.00,BKN,,0.00,WeatherDisplay:10.37,2013-12-17 08:08:00,
2013-12-17 03:13:00,-5.0,-7.9,30.63,ESE,108,0.0,0.0,87,0.00,BKN,,0.00,WeatherDisplay:10.37,2013-12-17 08:13:00,
2013-12-17 03:18:00,-4.5,-7.4,30.62,ESE,108,0.0,0.0,87,0.00,BKN,,0.00,WeatherDisplay:10.37,2013-12-17 08:18:00,
2013-12-17 03:23:00,-3.9,-6.6,30.62,ESE,108,0.0,0.0,88,0.00,BKN,,0.00,WeatherDisplay:10.37,2013-12-17 08:23:00,
2013-12-17 03:28:00,-2.2,-4.4,30.61,ESE,108,0.0,0.0,90,0.00,BKN,,0.00,WeatherDisplay:10.37,2013-12-17 08:28:00,
2013-12-17 03:33:00,-2.1,-4.5,30.60,NE,53,2.3,2.3,89,0.00,BKN,,0.00,WeatherDisplay:10.37,2013-12-17 08:33:00,
2013-12-17 03:38:00,-3.1,-6.2,30.61,NE,53,0.0,0.0,86,0.00,BKN,,0.00,WeatherDisplay:10.37,2013-12-17 08:38:00,
2013-12-17 03:43:00,-2.3,-5.0,30.61,NE,53,0.0,0.0,88,0.00,BKN,,0.00,WeatherDisplay:10.37,2013-12-17 08:43:00,
2013-12-17 03:48:00,-1.5,-4.2,30.60,NE,53,0.0,0.0,88,0.00,BKN,,0.00,WeatherDisplay:10.37,2013-12-17 08:48:00,
2013-12-17 03:53:00,-0.6,-3.1,30.59,NE,56,1.2,1.2,89,0.00,BKN,,0.00,WeatherDisplay:10.37,2013-12-17 08:53:00,
2013-12-17 03:58:00,-0.3,-3.0,30.59,NE,49,1.2,1.2,88,0.00,BKN,,0.00,WeatherDisplay:10.37,2013-12-17 08:58:00,
2013-12-17 04:03:00,-1.4,-4.6,30.58,NE,50,0.0,0.0,86,0.00,BKN,,0.00,WeatherDisplay:10.37,2013-12-17 09:03:00,
2013-12-17 04:08:00,-1.3,-4.2,30.58,NE,54,0.0,0.0,87,0.00,BKN,,0.00,WeatherDisplay:10.37,2013-12-17 09:08:00,
2013-12-17 04:13:00,0.2,-2.0,30.58,ENE,65,1.2,1.2,90,0.00,BKN,,0.00,WeatherDisplay:10.37,2013-12-17 09:13:00,
2013-12-17 04:18:00,1.0,-1.5,30.59,SSE,161,0.0,0.0,89,0.00,BKN,,0.00,WeatherDisplay:10.37,2013-12-17 09:18:00,
2013-12-17 04:23:00,0.3,-2.9,30.59,West,267,0.0,0.0,86,0.00,BKN,,0.00,WeatherDisplay:10.37,2013-12-17 09:23:00,
2013-12-17 04:28:00,1.2,-1.0,30.59,NE,39,1.2,1.2,90,0.00,BKN,,0.00,WeatherDisplay:10.37,2013-12-17 09:28:00,
2013-12-17 04:33:00,2.5,0.5,30.59,NE,39,0.0,0.0,91,0.00,BKN,,0.00,WeatherDisplay:10.37,2013-12-17 09:33:00,
2013-12-17 04:38:00,3.4,1.4,30.59,NE,45,0.0,0.0,91,0.00,BKN,,0.00,WeatherDisplay:10.37,2013-12-17 09:38:00,
2013-12-17 04:43:00,4.0,1.7,30.58,NE,45,0.0,0.0,90,0.00,BKN,,0.00,WeatherDisplay:10.37,2013-12-17 09:43:00,
2013-12-17 04:48:00,4.0,1.5,30.57,NE,46,0.0,0.0,89,0.00,BKN,,0.00,WeatherDisplay:10.37,2013-12-17 09:48:00,
2013-12-17 04:53:00,4.2,1.7,30.57,NE,47,0.0,0.0,89,0.00,BKN,,0.00,WeatherDisplay:10.37,2013-12-17 09:53:00,
2013-12-17 04:58:00,5.1,2.8,30.57,NE,47,0.0,0.0,90,0.00,BKN,,0.00,WeatherDisplay:10.37,2013-12-17 09:58:00,
2013-12-17 05:03:00,5.5,3.2,30.56,NE,47,0.0,0.0,90,0.00,OVC,,0.00,WeatherDisplay:10.37,2013-12-17 10:03:00,
2013-12-17 05:08:00,5.8,3.5,30.55,NE,47,0.0,0.0,90,0.00,OVC,,0.00,WeatherDisplay:10.37,2013-12-17 10:08:00,
2013-12-17 05:13:00,6.3,4.0,30.55,NE,45,0.0,0.0,90,0.00,OVC,,0.00,WeatherDisplay:10.37,2013-12-17 10:13:00,
2013-12-17 05:18:00,6.7,4.4,30.55,NE,45,0.0,0.0,90,0.00,OVC,,0.00,WeatherDisplay:10.37,2013-12-17 10:18:00,
2013-12-17 05:23:00,7.0,4.7,30.55,NE,45,0.0,0.0,90,0.00,OVC,,0.00,WeatherDisplay:10.37,2013-12-17 10:23:00,
2013-12-17 05:28:00,7.4,5.1,30.55,NE,47,0.0,0.1,90,0.00,OVC,,0.00,WeatherDisplay:10.37,2013-12-17 10:28:00,
2013-12-17 05:33:00,7.9,5.8,30.56,ESE,103,1.2,0.0,91,0.00,OVC,,0.00,WeatherDisplay:10.37,2013-12-17 10:33:00,
2013-12-17 05:38:00,8.6,6.5,30.55,ESE,117,1.2,1.2,91,0.00,OVC,,0.00,WeatherDisplay:10.37,2013-12-17 10:38:00,
2013-12-17 05:43:00,9.1,7.0,30.55,ESE,107,1.2,1.2,91,0.00,OVC,,0.00,WeatherDisplay:10.37,2013-12-17 10:43:00,
2013-12-17 05:48:00,9.5,7.4,30.55,ESE,118,2.3,2.3,91,0.00,OVC,,0.00,WeatherDisplay:10.37,2013-12-17 10:48:00,
2013-12-17 05:53:00,9.9,7.8,30.55,SSE,155,2.3,2.3,91,0.00,OVC,,0.00,WeatherDisplay:10.37,2013-12-17 10:53:00,
2013-12-17 05:58:00,10.3,8.2,30.54,SE,132,2.3,2.3,91,0.00,OVC,,0.00,WeatherDisplay:10.37,2013-12-17 10:58:00,
2013-12-17 06:03:00,10.5,8.4,30.54,SE,125,2.3,2.3,91,0.00,-SN,,0.00,WeatherDisplay:10.37,2013-12-17 11:03:00,
2013-12-17 06:08:00,10.7,8.6,30.53,SE,126,4.0,4.0,91,0.00,-SN,,0.00,WeatherDisplay:10.37,2013-12-17 11:08:00,
2013-12-17 06:13:00,11.0,8.9,30.53,SE,141,3.5,3.5,91,0.00,-SN,,0.00,WeatherDisplay:10.37,2013-12-17 11:13:00,
2013-12-17 06:18:00,11.2,9.1,30.53,SE,125,2.3,2.3,91,0.00,-SN,,0.00,WeatherDisplay:10.37,2013-12-17 11:18:00,
2013-12-17 06:23:00,11.3,9.2,30.53,ESE,118,3.5,3.5,91,0.00,-SN,,0.00,WeatherDisplay:10.37,2013-12-17 11:23:00,
2013-12-17 06:28:00,11.4,9.3,30.52,SE,135,3.5,3.5,91,0.00,-SN,,0.00,WeatherDisplay:10.37,2013-12-17 11:28:00,
2013-12-17 06:33:00,11.4,9.3,30.52,SE,135,4.0,4.0,91,0.00,-SN,,0.00,WeatherDisplay:10.37,2013-12-17 11:33:00,
2013-12-17 06:38:00,11.3,9.2,30.52,SSE,150,4.6,4.6,91,0.00,-SN,,0.00,WeatherDisplay:10.37,2013-12-17 11:38:00,
2013-12-17 06:43:00,11.4,9.3,30.52,SSE,151,3.5,3.5,91,0.00,-SN,,0.00,WeatherDisplay:10.37,2013-12-17 11:43:00,
2013-12-17 06:48:00,11.4,9.3,30.52,SE,127,5.8,5.8,91,0.00,-SN,,0.00,WeatherDisplay:10.37,2013-12-17 11:48:00,
2013-12-17 06:53:00,11.5,9.4,30.52,ESE,106,2.3,2.3,91,0.00,-SN,,0.00,WeatherDisplay:10.37,2013-12-17 11:53:00,
2013-12-17 06:58:00,11.5,9.4,30.51,ESE,114,3.5,3.5,91,0.00,-SN,,0.00,WeatherDisplay:10.37,2013-12-17 11:58:00,
2013-12-17 07:03:00,11.7,9.6,30.51,SE,144,3.5,3.5,91,0.00,-SN,,0.00,WeatherDisplay:10.37,2013-12-17 12:03:00,
2013-12-17 07:08:00,11.7,9.6,30.50,ESE,120,4.6,4.6,91,0.00,-SN,,0.00,WeatherDisplay:10.37,2013-12-17 12:08:00,
2013-12-17 07:13:00,11.8,9.7,30.50,SE,140,3.5,3.5,91,0.00,-SN,,0.00,WeatherDisplay:10.37,2013-12-17 12:13:00,
2013-12-17 07:18:00,11.9,9.8,30.50,SSE,165,2.3,2.3,91,0.00,-SN,,0.00,WeatherDisplay:10.37,2013-12-17 12:18:00,
2013-12-17 07:23:00,12.0,9.9,30.50,SE,127,3.5,3.5,91,0.00,-SN,,0.00,WeatherDisplay:10.37,2013-12-17 12:23:00,
2013-12-17 07:28:00,12.0,9.9,30.49,SE,140,3.5,3.5,91,0.00,-SN,,0.00,WeatherDisplay:10.37,2013-12-17 12:28:00,
2013-12-17 07:33:00,12.1,10.0,30.49,SE,126,3.5,3.5,91,0.00,-SN,,0.00,WeatherDisplay:10.37,2013-12-17 12:33:00,
2013-12-17 07:38:00,12.2,10.1,30.49,SSE,151,2.3,2.3,91,0.00,-SN,,0.00,WeatherDisplay:10.37,2013-12-17 12:38:00,
2013-12-17 07:43:00,12.4,10.3,30.49,SE,125,3.5,3.5,91,0.00,-SN,,0.00,WeatherDisplay:10.37,2013-12-17 12:43:00,
2013-12-17 07:48:00,12.6,10.5,30.49,SE,127,2.3,2.3,91,0.00,-SN,,0.00,WeatherDisplay:10.37,2013-12-17 12:48:00,
2013-12-17 07:53:00,12.8,10.7,30.48,SE,125,2.3,2.3,91,0.00,-SN,,0.00,WeatherDisplay:10.37,2013-12-17 12:53:00,
2013-12-17 07:58:00,13.1,11.2,30.48,East,94,3.5,3.5,92,0.00,-SN,,0.00,WeatherDisplay:10.37,2013-12-17 12:58:00,
2013-12-17 08:03:00,13.4,11.5,30.48,SSE,150,3.5,3.5,92,0.00,-SN,,0.00,WeatherDisplay:10.37,2013-12-17 13:03:00,
2013-12-17 08:08:00,13.8,11.9,30.48,SE,142,3.5,3.5,92,0.00,-SN,,0.00,WeatherDisplay:10.37,2013-12-17 13:08:00,
2013-12-17 08:13:00,14.3,12.4,30.48,SSE,159,3.5,3.5,92,0.00,-SN,,0.00,WeatherDisplay:10.37,2013-12-17 13:13:00,
2013-12-17 08:18:00,14.6,12.7,30.48,SE,129,5.0,5.0,92,0.00,-SN,,0.00,WeatherDisplay:10.37,2013-12-17 13:18:00,
2013-12-17 08:23:00,14.8,12.9,30.47,SE,133,4.6,4.6,92,0.00,-SN,,0.00,WeatherDisplay:10.37,2013-12-17 13:23:00,
2013-12-17 08:29:00,15.0,13.1,30.47,ESE,118,4.6,4.6,92,0.00,-SN,,0.00,WeatherDisplay:10.37,2013-12-17 13:29:00,
2013-12-17 08:34:00,15.2,13.3,30.47,SE,145,6.9,6.9,92,0.00,-SN,,0.00,WeatherDisplay:10.37,2013-12-17 13:34:00,
2013-12-17 08:39:00,15.4,13.5,30.47,SE,124,6.9,6.9,92,0.00,-SN,,0.00,WeatherDisplay:10.37,2013-12-17 13:39:00,
2013-12-17 08:44:00,15.5,13.6,30.47,SE,127,4.6,4.6,92,0.00,-SN,,0.00,WeatherDisplay:10.37,2013-12-17 13:44:00,
2013-12-17 08:49:00,15.7,13.8,30.47,SSE,148,3.5,3.5,92,0.00,-SN,,0.00,WeatherDisplay:10.37,2013-12-17 13:49:00,
2013-12-17 08:54:00,15.9,14.0,30.47,SE,139,4.6,4.6,92,0.00,-SN,,0.00,WeatherDisplay:10.37,2013-12-17 13:54:00,
2013-12-17 08:59:00,16.0,14.1,30.47,SSE,148,5.8,5.8,92,0.00,-SN,,0.00,WeatherDisplay:10.37,2013-12-17 13:59:00,
2013-12-17 09:04:00,16.3,14.4,30.47,SSE,163,4.6,4.6,92,0.00,-SN,,0.00,WeatherDisplay:10.37,2013-12-17 14:04:00,
2013-12-17 09:09:00,16.6,14.7,30.47,East,97,3.5,3.5,92,0.00,-SN,,0.00,WeatherDisplay:10.37,2013-12-17 14:09:00,
2013-12-17 09:14:00,16.7,14.8,30.46,SE,139,6.0,6.0,92,0.00,-SN,,0.00,WeatherDisplay:10.37,2013-12-17 14:14:00,
2013-12-17 09:19:00,16.9,15.0,30.46,SSE,153,3.5,3.5,92,0.00,-SN,,0.00,WeatherDisplay:10.37,2013-12-17 14:19:00,
2013-12-17 09:24:00,17.1,15.2,30.46,SSE,163,3.5,3.5,92,0.00,-SN,,0.00,WeatherDisplay:10.37,2013-12-17 14:24:00,
2013-12-17 09:29:00,17.3,15.4,30.46,SE,137,4.6,4.6,92,0.00,-SN,,0.00,WeatherDisplay:10.37,2013-12-17 14:29:00,
2013-12-17 09:32:00,17.5,15.6,30.46,South,185,5.8,5.8,92,0.00,-SN,,0.00,WeatherDisplay:10.37,2013-12-17 14:32:00,
2013-12-17 09:37:00,17.7,15.8,30.46,SE,126,3.5,3.5,92,0.00,-SN,,0.00,WeatherDisplay:10.37,2013-12-17 14:37:00,
2013-12-17 09:42:00,17.8,15.6,30.47,South,169,6.9,6.9,91,0.00,-SN,,0.00,WeatherDisplay:10.37,2013-12-17 14:42:00,
2013-12-17 09:47:00,18.0,15.8,30.46,SSE,161,4.6,4.6,91,0.00,-SN,,0.00,WeatherDisplay:10.37,2013-12-17 14:47:00,
2013-12-17 09:52:00,18.2,16.0,30.46,SE,137,4.6,4.6,91,0.00,-SN,,0.00,WeatherDisplay:10.37,2013-12-17 14:52:00,
2013-12-17 09:57:00,18.3,16.1,30.46,SSE,156,3.5,3.5,91,0.00,-SN,,0.00,WeatherDisplay:10.37,2013-12-17 14:57:00,
2013-12-17 10:02:00,18.5,16.3,30.47,SSE,162,2.3,2.3,91,0.00,-SN,,0.00,WeatherDisplay:10.37,2013-12-17 15:02:00,
2013-12-17 10:07:00,18.6,16.4,30.47,SSE,168,3.5,3.5,91,0.00,-SN,,0.00,WeatherDisplay:10.37,2013-12-17 15:07:00,
2013-12-17 10:12:00,18.8,16.6,30.46,SSE,160,2.0,2.0,91,0.00,-SN,,0.00,WeatherDisplay:10.37,2013-12-17 15:12:00,
2013-12-17 10:17:00,18.9,16.7,30.47,South,184,4.6,4.6,91,0.00,-SN,,0.00,WeatherDisplay:10.37,2013-12-17 15:17:00,
2013-12-17 10:22:00,19.0,16.6,30.46,SSE,162,2.3,2.3,90,0.00,-SN,,0.00,WeatherDisplay:10.37,2013-12-17 15:22:00,
2013-12-17 10:27:00,19.2,16.7,30.46,SE,132,1.2,1.2,90,0.00,-SN,,0.00,WeatherDisplay:10.37,2013-12-17 15:27:00,
2013-12-17 10:32:00,19.4,16.9,30.46,South,182,2.3,2.3,90,0.00,-SN,,0.00,WeatherDisplay:10.37,2013-12-17 15:32:00,
2013-12-17 10:37:00,19.6,17.1,30.46,South,185,2.3,2.3,90,0.00,-SN,,0.00,WeatherDisplay:10.37,2013-12-17 15:37:00,
2013-12-17 10:42:00,19.8,17.3,30.46,SSW,197,2.3,2.3,90,0.00,-SN,,0.00,WeatherDisplay:10.37,2013-12-17 15:42:00,
2013-12-17 10:47:00,20.0,17.5,30.46,South,178,3.0,3.0,90,0.00,-SN,,0.00,WeatherDisplay:10.37,2013-12-17 15:47:00,
2013-12-17 10:52:00,20.2,17.7,30.46,SW,216,4.6,4.6,90,0.00,-SN,,0.00,WeatherDisplay:10.37,2013-12-17 15:52:00,
2013-12-17 10:57:00,20.5,17.8,30.46,SSW,200,3.5,3.5,89,0.00,-SN,,0.00,WeatherDisplay:10.37,2013-12-17 15:57:00,
2013-12-17 11:02:00,20.7,18.0,30.46,South,181,3.5,3.5,89,0.00,-SN,,0.00,WeatherDisplay:10.37,2013-12-17 16:02:00,
2013-12-17 11:07:00,21.0,18.0,30.45,WSW,255,3.5,3.5,88,0.00,-SN,,0.00,WeatherDisplay:10.37,2013-12-17 16:07:00,
2013-12-17 11:12:00,21.3,18.3,30.45,SSW,210,3.5,3.5,88,0.00,-SN,,0.00,WeatherDisplay:10.37,2013-12-17 16:12:00,
2013-12-17 11:17:00,21.5,18.2,30.45,SSW,194,3.5,3.5,87,0.00,-SN,,0.00,WeatherDisplay:10.37,2013-12-17 16:17:00,
2013-12-17 11:22:00,21.7,18.4,30.45,SW,219,3.0,3.0,87,0.00,-SN,,0.00,WeatherDisplay:10.37,2013-12-17 16:22:00,
2013-12-17 11:27:00,21.9,18.6,30.45,SW,234,3.5,3.5,87,0.00,-SN,,0.00,WeatherDisplay:10.37,2013-12-17 16:27:00,
2013-12-17 11:32:00,22.2,18.9,30.44,SSW,192,1.2,1.2,87,0.00,-SN,,0.00,WeatherDisplay:10.37,2013-12-17 16:32:00,
2013-12-17 11:37:00,22.5,19.2,30.44,South,170,2.0,2.0,87,0.00,-SN,,0.00,WeatherDisplay:10.37,2013-12-17 16:37:00,
2013-12-17 11:42:00,22.7,19.1,30.44,SW,215,2.3,2.3,86,0.00,-SN,,0.00,WeatherDisplay:10.37,2013-12-17 16:42:00,
2013-12-17 11:47:00,22.8,19.2,30.44,SSE,151,2.3,2.3,86,0.00,-SN,,0.00,WeatherDisplay:10.37,2013-12-17 16:47:00,
2013-12-17 11:52:00,22.7,19.1,30.44,SSE,167,3.5,3.5,86,0.00,-SN,,0.00,WeatherDisplay:10.37,2013-12-17 16:52:00,
2013-12-17 11:57:00,22.8,19.2,30.44,South,185,3.5,3.5,86,0.00,-SN,,0.00,WeatherDisplay:10.37,2013-12-17 16:57:00,
2013-12-17 12:02:00,23.0,19.4,30.44,South,179,2.3,2.3,86,0.00,-SN,,0.00,WeatherDisplay:10.37,2013-12-17 17:02:00,
2013-12-17 12:07:00,23.2,19.6,30.43,SSE,163,3.5,3.5,86,0.00,-SN,,0.00,WeatherDisplay:10.37,2013-12-17 17:07:00,
2013-12-17 12:12:00,23.5,20.2,30.43,South,190,2.3,0.0,87,0.00,-SN,,0.00,WeatherDisplay:10.37,2013-12-17 17:12:00,
2013-12-17 12:17:00,23.6,20.0,30.43,SSW,193,2.3,2.3,86,0.00,-SN,,0.00,WeatherDisplay:10.37,2013-12-17 17:17:00,
2013-12-17 12:22:00,23.9,20.3,30.42,South,177,2.3,2.3,86,0.00,-SN,,0.00,WeatherDisplay:10.37,2013-12-17 17:22:00,
2013-12-17 12:27:00,24.3,20.7,30.42,SSW,208,2.3,2.3,86,0.00,-SN,,0.00,WeatherDisplay:10.37,2013-12-17 17:27:00,
2013-12-17 12:32:00,24.7,20.8,30.42,SW,228,2.3,2.3,85,0.00,-SN,,0.00,WeatherDisplay:10.37,2013-12-17 17:32:00,
2013-12-17 12:37:00,25.1,20.9,30.42,SSE,160,1.2,0.0,84,0.00,-SN,,0.00,WeatherDisplay:10.37,2013-12-17 17:37:00,
2013-12-17 12:42:00,25.5,21.3,30.42,SSE,167,3.5,3.5,84,0.00,-SN,,0.00,WeatherDisplay:10.37,2013-12-17 17:42:00,
2013-12-17 12:47:00,25.6,21.2,30.42,SSE,165,3.5,3.5,83,0.00,-SN,,0.00,WeatherDisplay:10.37,2013-12-17 17:47:00,
2013-12-17 12:52:00,25.7,21.3,30.42,South,183,2.3,2.3,83,0.00,-SN,,0.00,WeatherDisplay:10.37,2013-12-17 17:52:00,
2013-12-17 12:57:00,25.7,21.3,30.42,SSE,165,2.3,2.3,83,0.00,-SN,,0.00,WeatherDisplay:10.37,2013-12-17 17:57:00,
2013-12-17 13:02:00,25.8,21.3,30.42,South,177,2.3,2.3,83,0.00,-SN,,0.00,WeatherDisplay:10.37,2013-12-17 18:02:00,
2013-12-17 13:07:00,26.0,21.5,30.42,SSE,152,2.3,2.3,83,0.00,-SN,,0.00,WeatherDisplay:10.37,2013-12-17 18:07:00,
2013-12-17 13:12:00,26.3,21.8,30.42,SSE,150,0.0,0.0,83,0.00,-SN,,0.00,WeatherDisplay:10.37,2013-12-17 18:12:00,
2013-12-17 13:17:00,26.8,22.3,30.42,SSE,149,1.2,1.2,83,0.00,-SN,,0.00,WeatherDisplay:10.37,2013-12-17 18:17:00,
2013-12-17 13:22:00,27.0,22.2,30.42,SSE,149,0.0,0.0,82,0.00,-SN,,0.00,WeatherDisplay:10.37,2013-12-17 18:22:00,
2013-12-17 13:27:00,27.7,23.2,30.42,SSE,149,0.0,0.0,83,0.00,-SN,,0.00,WeatherDisplay:10.37,2013-12-17 18:27:00,
2013-12-17 13:32:00,28.0,22.9,30.42,SSE,149,0.0,0.0,81,0.00,-SN,,0.00,WeatherDisplay:10.37,2013-12-17 18:32:00,
2013-12-17 13:37:00,27.6,22.5,30.42,SSE,149,0.0,0.0,81,0.00,-SN,,0.00,WeatherDisplay:10.37,2013-12-17 18:37:00,
2013-12-17 13:42:00,27.6,23.1,30.42,SSE,149,0.0,0.0,83,0.00,-SN,,0.00,WeatherDisplay:10.37,2013-12-17 18:42:00,
2013-12-17 13:47:00,27.7,23.5,30.42,SSE,149,0.0,0.0,84,0.00,-SN,,0.00,WeatherDisplay:10.37,2013-12-17 18:47:00,
2013-12-17 13:52:00,27.5,23.6,30.43,WNW,300,4.0,4.0,85,0.00,-SN,,0.00,WeatherDisplay:10.37,2013-12-17 18:52:00,
2013-12-17 13:57:00,27.4,24.3,30.43,WNW,300,3.5,3.5,88,0.00,-SN,,0.00,WeatherDisplay:10.37,2013-12-17 18:57:00,
2013-12-17 14:02:00,27.3,24.5,30.43,WNW,297,3.5,3.5,89,0.00,-SN,,0.00,WeatherDisplay:10.37,2013-12-17 19:02:00,
2013-12-17 14:08:00,27.3,24.5,30.43,West,278,3.5,3.5,89,0.00,-SN,,0.00,WeatherDisplay:10.37,2013-12-17 19:08:00,
2013-12-17 14:13:00,27.3,24.5,30.43,WNW,285,3.5,3.5,89,0.00,-SN,,0.00,WeatherDisplay:10.37,2013-12-17 19:13:00,
2013-12-17 14:18:00,27.3,24.5,30.43,West,274,3.5,3.5,89,0.00,-SN,,0.00,WeatherDisplay:10.37,2013-12-17 19:18:00,
2013-12-17 14:23:00,27.3,24.5,30.43,WNW,286,2.0,2.0,89,0.00,-SN,,0.00,WeatherDisplay:10.37,2013-12-17 19:23:00,
2013-12-17 14:28:00,27.5,24.7,30.43,West,277,0.0,0.0,89,0.00,-SN,,0.00,WeatherDisplay:10.37,2013-12-17 19:28:00,
2013-12-17 14:33:00,27.7,25.0,29.93,West,267,2.0,3.0,88,0.00,,,0.00,weatherlink.com 1.10,2013-12-17 19:33:00,
2013-12-17 14:38:00,27.7,24.3,30.43,West,271,3.5,3.5,87,0.00,-SN,,0.00,WeatherDisplay:10.37,2013-12-17 19:38:00,
2013-12-17 14:43:00,27.5,24.1,30.44,NW,305,4.6,4.6,87,0.00,-SN,,0.00,WeatherDisplay:10.37,2013-12-17 19:43:00,
2013-12-17 14:48:00,27.4,24.0,30.44,NW,312,11.5,11.5,87,0.00,-SN,,0.00,WeatherDisplay:10.37,2013-12-17 19:48:00,
2013-12-17 14:53:00,27.3,23.9,30.44,West,278,5.0,5.0,87,0.00,-SN,,0.00,WeatherDisplay:10.37,2013-12-17 19:53:00,
2013-12-17 14:58:00,27.2,23.8,30.44,WNW,302,9.2,9.2,87,0.00,-SN,,0.00,WeatherDisplay:10.37,2013-12-17 19:58:00,
2013-12-17 15:03:00,27.1,23.7,30.44,NW,310,5.8,5.8,87,0.00,-SN,,0.00,WeatherDisplay:10.37,2013-12-17 20:03:00,
2013-12-17 15:08:00,27.1,23.7,30.44,NW,313,6.9,6.9,87,0.00,-SN,,0.00,WeatherDisplay:10.37,2013-12-17 20:08:00,
2013-12-17 15:13:00,27.1,23.7,30.44,NW,314,6.9,6.9,87,0.00,-SN,,0.00,WeatherDisplay:10.37,2013-12-17 20:13:00,
2013-12-17 15:18:00,27.0,23.6,30.44,WNW,296,4.0,4.0,87,0.00,-SN,,0.00,WeatherDisplay:10.37,2013-12-17 20:18:00,
2013-12-17 15:23:00,27.0,23.4,30.44,NW,311,5.8,5.8,86,0.00,-SN,,0.00,WeatherDisplay:10.37,2013-12-17 20:23:00,
2013-12-17 15:28:00,27.0,23.4,30.44,WNW,302,9.2,9.2,86,0.00,-SN,,0.00,WeatherDisplay:10.37,2013-12-17 20:28:00,
2013-12-17 15:33:00,27.0,23.4,30.44,NW,307,6.9,6.9,86,0.00,-SN,,0.00,WeatherDisplay:10.37,2013-12-17 20:33:00,
2013-12-17 15:38:00,27.0,22.8,30.45,West,272,8.1,8.1,84,0.00,-SN,,0.00,WeatherDisplay:10.37,2013-12-17 20:38:00,
2013-12-17 15:43:00,26.9,22.7,30.45,WNW,289,4.6,4.6,84,0.00,-SN,,0.00,WeatherDisplay:10.37,2013-12-17 20:43:00,
2013-12-17 15:48:00,26.9,22.7,30.45,NW,305,6.9,6.9,84,0.00,-SN,,0.00,WeatherDisplay:10.37,2013-12-17 20:48:00,
2013-12-17 15:53:00,26.8,22.6,30.45,WNW,289,4.6,4.6,84,0.00,-SN,,0.00,WeatherDisplay:10.37,2013-12-17 20:53:00,
2013-12-17 15:58:00,26.7,22.2,30.45,WNW,290,5.8,5.8,83,0.00,-SN,,0.00,WeatherDisplay:10.37,2013-12-17 20:58:00,
2013-12-17 16:03:00,26.6,21.8,30.45,WNW,297,9.2,9.2,82,0.00,-SN,,0.00,WeatherDisplay:10.37,2013-12-17 21:03:00,
2013-12-17 16:08:00,26.5,21.7,30.45,WNW,298,5.8,5.8,82,0.00,-SN,,0.00,WeatherDisplay:10.37,2013-12-17 21:08:00,
2013-12-17 16:13:00,26.4,21.4,30.45,NW,317,6.9,6.9,81,0.00,-SN,,0.00,WeatherDisplay:10.37,2013-12-17 21:13:00,
2013-12-17 16:18:00,26.2,21.2,30.45,WNW,300,5.8,5.8,81,0.00,-SN,,0.00,WeatherDisplay:10.37,2013-12-17 21:18:00,
2013-12-17 16:23:00,26.1,21.1,30.45,WNW,297,3.5,3.5,81,0.00,-SN,,0.00,WeatherDisplay:10.37,2013-12-17 21:23:00,
2013-12-17 16:28:00,26.1,21.1,30.45,WNW,298,2.3,2.3,81,0.00,-SN,,0.00,WeatherDisplay:10.37,2013-12-17 21:28:00,
2013-12-17 16:33:00,26.1,21.1,30.46,WNW,298,5.8,5.8,81,0.00,-SN,,0.00,WeatherDisplay:10.37,2013-12-17 21:33:00,
2013-12-17 16:38:00,26.1,21.1,30.46,NW,304,1.2,0.0,81,0.00,-SN,,0.00,WeatherDisplay:10.37,2013-12-17 21:38:00,
2013-12-17 16:43:00,26.0,21.0,30.46,NW,304,2.3,2.3,81,0.00,-SN,,0.00,WeatherDisplay:10.37,2013-12-17 21:43:00,
2013-12-17 16:48:00,26.0,21.0,30.46,WNW,294,1.2,1.2,81,0.00,-SN,,0.00,WeatherDisplay:10.37,2013-12-17 21:48:00,
2013-12-17 16:53:00,25.8,20.8,30.46,WNW,302,2.3,2.3,81,0.00,-SN,,0.00,WeatherDisplay:10.37,2013-12-17 21:53:00,
2013-12-17 16:58:00,25.8,20.8,30.46,WNW,300,2.3,2.3,81,0.00,-SN,,0.00,WeatherDisplay:10.37,2013-12-17 21:58:00,
2013-12-17 17:03:00,25.7,20.7,30.46,NW,305,2.3,2.3,81,0.00,OVC,,0.00,WeatherDisplay:10.37,2013-12-17 22:03:00,
2013-12-17 17:08:00,25.6,20.6,30.46,WNW,303,2.3,2.3,81,0.00,OVC,,0.00,WeatherDisplay:10.37,2013-12-17 22:08:00,
2013-12-17 17:13:00,25.6,20.6,30.46,NW,305,1.2,0.0,81,0.00,OVC,,0.00,WeatherDisplay:10.37,2013-12-17 22:13:00,
2013-12-17 17:16:00,25.5,20.5,30.46,NW,305,0.0,0.0,81,0.00,OVC,,0.00,WeatherDisplay:10.37,2013-12-17 22:16:00,
2013-12-17 17:21:00,25.4,20.4,30.46,NW,305,1.2,0.0,81,0.00,OVC,,0.00,WeatherDisplay:10.37,2013-12-17 22:21:00,
2013-12-17 17:26:00,25.3,20.6,30.46,NW,305,0.0,0.0,82,0.00,OVC,,0.00,WeatherDisplay:10.37,2013-12-17 22:26:00,
2013-12-17 17:31:00,25.2,20.5,30.46,NW,305,0.0,0.0,82,0.00,OVC,,0.00,WeatherDisplay:10.37,2013-12-17 22:31:00,
2013-12-17 17:36:00,25.2,20.5,30.46,NW,305,0.0,0.0,82,0.00,OVC,,0.00,WeatherDisplay:10.37,2013-12-17 22:36:00,
2013-12-17 17:41:00,25.1,20.4,30.46,NW,305,0.0,0.0,82,0.00,OVC,,0.00,WeatherDisplay:10.37,2013-12-17 22:41:00,
2013-12-17 17:46:00,25.1,20.4,30.47,NW,305,0.0,0.0,82,0.00,OVC,,0.00,WeatherDisplay:10.37,2013-12-17 22:46:00,
2013-12-17 17:51:00,24.9,20.5,30.47,NW,305,0.0,0.0,83,0.00,OVC,,0.00,WeatherDisplay:10.37,2013-12-17 22:51:00,
2013-12-17 17:56:00,24.7,20.3,30.47,NW,305,0.0,0.0,83,0.00,OVC,,0.00,WeatherDisplay:10.37,2013-12-17 22:56:00,
2013-12-17 18:01:00,24.6,20.5,30.47,NW,305,0.0,0.0,84,0.00,OVC,,0.00,WeatherDisplay:10.37,2013-12-17 23:01:00,
2013-12-17 18:06:00,24.5,20.4,30.47,NW,305,0.0,0.0,84,0.00,OVC,,0.00,WeatherDisplay:10.37,2013-12-17 23:06:00,
2013-12-17 18:11:00,24.5,20.4,30.47,SW,215,1.2,1.2,84,0.00,OVC,,0.00,WeatherDisplay:10.37,2013-12-17 23:11:00,
2013-12-17 18:16:00,24.5,20.4,30.47,SSW,200,1.2,1.2,84,0.00,OVC,,0.00,WeatherDisplay:10.37,2013-12-17 23:16:00,
2013-12-17 18:21:00,24.6,20.5,30.46,SSW,201,0.0,0.0,84,0.00,OVC,,0.00,WeatherDisplay:10.37,2013-12-17 23:21:00,
2013-12-17 18:26:00,24.6,20.2,30.46,SSW,200,1.2,1.2,83,0.00,OVC,,0.00,WeatherDisplay:10.37,2013-12-17 23:26:00,
2013-12-17 18:31:00,24.6,20.5,30.46,SSW,200,1.2,1.2,84,0.00,OVC,,0.00,WeatherDisplay:10.37,2013-12-17 23:31:00,
2013-12-17 18:36:00,24.6,20.5,30.46,SSW,200,0.0,0.0,84,0.00,OVC,,0.00,WeatherDisplay:10.37,2013-12-17 23:36:00,
2013-12-17 18:41:00,24.5,20.4,30.46,SSW,200,0.0,0.0,84,0.00,OVC,,0.00,WeatherDisplay:10.37,2013-12-17 23:41:00,
2013-12-17 18:46:00,24.3,20.2,30.46,South,184,1.2,1.2,84,0.00,OVC,,0.00,WeatherDisplay:10.37,2013-12-17 23:46:00,
2013-12-17 18:51:00,24.4,20.3,30.46,South,184,0.0,0.0,84,0.00,OVC,,0.00,WeatherDisplay:10.37,2013-12-17 23:51:00,
2013-12-17 18:56:00,24.4,20.3,30.46,South,184,0.0,0.0,84,0.00,OVC,,0.00,WeatherDisplay:10.37,2013-12-17 23:56:00,
2013-12-17 19:01:00,24.3,20.2,30.46,South,184,0.0,0.0,84,0.00,OVC,,0.00,WeatherDisplay:10.37,2013-12-18 00:01:00,
2013-12-17 19:06:00,24.2,20.1,30.46,South,184,0.0,0.0,84,0.00,OVC,,0.00,WeatherDisplay:10.37,2013-12-18 00:06:00,
2013-12-17 19:11:00,24.1,20.2,30.46,South,184,0.0,0.0,85,0.00,OVC,,0.00,WeatherDisplay:10.37,2013-12-18 00:11:00,
2013-12-17 19:16:00,24.1,20.2,30.46,South,184,0.0,0.0,85,0.00,OVC,,0.00,WeatherDisplay:10.37,2013-12-18 00:16:00,
2013-12-17 19:21:00,24.1,20.2,30.46,South,184,0.0,0.0,85,0.00,OVC,,0.00,WeatherDisplay:10.37,2013-12-18 00:21:00,
2013-12-17 19:26:00,24.1,20.2,30.47,South,184,0.0,0.0,85,0.00,OVC,,0.00,WeatherDisplay:10.37,2013-12-18 00:26:00,
2013-12-17 19:31:00,23.9,20.0,30.47,South,184,0.0,0.0,85,0.00,OVC,,0.00,WeatherDisplay:10.37,2013-12-18 00:31:00,
2013-12-17 19:36:00,23.8,19.9,30.47,South,184,0.0,0.0,85,0.00,OVC,,0.00,WeatherDisplay:10.37,2013-12-18 00:36:00,
2013-12-17 19:41:00,23.7,19.9,30.47,South,184,0.0,0.0,85,0.00,OVC,,0.00,WeatherDisplay:10.37,2013-12-18 00:41:00,
2013-12-17 19:46:00,23.7,20.1,30.47,South,184,0.0,0.0,86,0.00,OVC,,0.00,WeatherDisplay:10.37,2013-12-18 00:46:00,
2013-12-17 19:51:00,23.7,20.1,30.47,South,184,0.0,0.0,86,0.00,OVC,,0.00,WeatherDisplay:10.37,2013-12-18 00:51:00,
2013-12-17 19:56:00,23.7,20.1,30.47,South,184,0.0,0.0,86,0.00,OVC,,0.00,WeatherDisplay:10.37,2013-12-18 00:56:00,
2013-12-17 20:01:00,23.6,20.0,30.47,South,184,0.0,0.0,86,0.00,-SN,,0.00,WeatherDisplay:10.37,2013-12-18 01:01:00,
2013-12-17 20:06:00,23.7,20.4,30.47,South,184,1.2,1.2,87,0.00,-SN,,0.00,WeatherDisplay:10.37,2013-12-18 01:06:00,
2013-12-17 20:11:00,23.8,20.5,30.47,South,184,1.2,1.2,87,0.00,-SN,,0.00,WeatherDisplay:10.37,2013-12-18 01:11:00,
2013-12-17 20:16:00,23.9,20.6,30.47,SSE,153,0.0,0.0,87,0.00,-SN,,0.00,WeatherDisplay:10.37,2013-12-18 01:16:00,
2013-12-17 20:21:00,23.9,20.9,30.47,SSE,153,0.0,0.0,88,0.00,-SN,,0.00,WeatherDisplay:10.37,2013-12-18 01:21:00,
2013-12-17 20:26:00,23.7,20.7,30.47,SSE,161,0.0,0.0,88,0.00,-SN,,0.00,WeatherDisplay:10.37,2013-12-18 01:26:00,
2013-12-17 20:31:00,23.4,20.4,30.47,SSE,161,0.0,0.0,88,0.00,-SN,,0.00,WeatherDisplay:10.37,2013-12-18 01:31:00,
2013-12-17 20:36:00,23.4,20.9,30.47,SSE,160,0.0,0.2,90,0.00,-SN,,0.00,WeatherDisplay:10.37,2013-12-18 01:36:00,
2013-12-17 20:41:00,23.6,21.1,30.47,South,174,0.0,0.0,90,0.00,-SN,,0.00,WeatherDisplay:10.37,2013-12-18 01:41:00,
2013-12-17 20:46:00,23.6,21.4,30.47,South,174,0.0,0.0,91,0.00,-SN,,0.00,WeatherDisplay:10.37,2013-12-18 01:46:00,
2013-12-17 20:51:00,23.6,21.4,30.47,South,174,1.2,0.0,91,0.00,-SN,,0.00,WeatherDisplay:10.37,2013-12-18 01:51:00,
2013-12-17 20:56:00,23.7,21.5,30.47,SE,139,1.2,1.2,91,0.00,-SN,,0.00,WeatherDisplay:10.37,2013-12-18 01:56:00,
2013-12-17 21:01:00,23.9,21.9,30.47,SE,133,3.5,3.5,92,0.00,OVC,,0.00,WeatherDisplay:10.37,2013-12-18 02:01:00,
2013-12-17 21:06:00,24.0,22.0,30.46,SE,139,3.5,3.5,92,0.00,OVC,,0.00,WeatherDisplay:10.37,2013-12-18 02:06:00,
2013-12-17 21:11:00,24.2,22.0,30.46,ESE,118,3.5,3.5,91,0.00,OVC,,0.00,WeatherDisplay:10.37,2013-12-18 02:11:00,
2013-12-17 21:16:00,24.4,22.2,30.47,SSE,153,3.5,3.5,91,0.00,OVC,,0.00,WeatherDisplay:10.37,2013-12-18 02:16:00,
2013-12-17 21:21:00,24.5,22.2,30.46,SSE,151,2.3,2.3,91,0.00,OVC,,0.00,WeatherDisplay:10.37,2013-12-18 02:21:00,
2013-12-17 21:26:00,24.6,22.3,30.46,SSE,147,2.0,2.0,91,0.00,OVC,,0.00,WeatherDisplay:10.37,2013-12-18 02:26:00,
2013-12-17 21:31:00,24.6,22.3,30.46,SE,140,2.3,2.3,91,0.00,OVC,,0.00,WeatherDisplay:10.37,2013-12-18 02:31:00,
2013-12-17 21:36:00,24.7,22.4,30.46,SE,125,3.5,3.5,91,0.00,OVC,,0.00,WeatherDisplay:10.37,2013-12-18 02:36:00,
2013-12-17 21:41:00,24.7,22.2,30.46,SE,145,3.0,3.0,90,0.00,OVC,,0.00,WeatherDisplay:10.37,2013-12-18 02:41:00,
2013-12-17 21:46:00,24.7,22.2,30.47,South,182,1.2,1.2,90,0.00,OVC,,0.00,WeatherDisplay:10.37,2013-12-18 02:46:00,
2013-12-17 21:51:00,24.7,22.2,30.47,South,180,1.2,1.2,90,0.00,OVC,,0.00,WeatherDisplay:10.37,2013-12-18 02:51:00,
2013-12-17 21:56:00,24.7,22.2,30.47,SE,145,2.3,2.3,90,0.00,OVC,,0.00,WeatherDisplay:10.37,2013-12-18 02:56:00,
2013-12-17 22:01:00,24.7,22.2,30.47,South,174,1.2,1.2,90,0.00,-SN,,0.00,WeatherDisplay:10.37,2013-12-18 03:01:00,
2013-12-17 22:06:00,24.7,22.2,30.47,West,268,1.2,1.2,90,0.00,-SN,,0.00,WeatherDisplay:10.37,2013-12-18 03:06:00,
2013-12-17 22:11:00,24.7,22.2,30.47,SW,232,1.2,1.2,90,0.00,-SN,,0.00,WeatherDisplay:10.37,2013-12-18 03:11:00,
2013-12-17 22:16:00,24.7,22.4,30.47,WSW,252,1.2,1.2,91,0.00,-SN,,0.00,WeatherDisplay:10.37,2013-12-18 03:16:00,
2013-12-17 22:21:00,24.6,22.3,30.47,WSW,252,0.0,0.1,91,0.00,-SN,,0.00,WeatherDisplay:10.37,2013-12-18 03:21:00,
2013-12-17 22:26:00,24.6,22.3,30.47,WSW,252,1.2,1.2,91,0.00,-SN,,0.00,WeatherDisplay:10.37,2013-12-18 03:26:00,
2013-12-17 22:31:00,24.6,22.3,30.47,SE,141,0.0,0.0,91,0.00,-SN,,0.00,WeatherDisplay:10.37,2013-12-18 03:31:00,
2013-12-17 22:36:00,24.5,22.2,30.47,South,182,0.0,0.0,91,0.00,-SN,,0.00,WeatherDisplay:10.37,2013-12-18 03:36:00,
2013-12-17 22:41:00,24.4,22.2,30.46,South,182,0.0,0.0,91,0.00,-SN,,0.00,WeatherDisplay:10.37,2013-12-18 03:41:00,
2013-12-17 22:46:00,24.4,22.2,30.47,South,182,0.0,0.0,91,0.00,-SN,,0.00,WeatherDisplay:10.37,2013-12-18 03:46:00,
2013-12-17 22:51:00,24.4,22.2,30.46,WSW,258,1.2,1.2,91,0.00,-SN,,0.00,WeatherDisplay:10.37,2013-12-18 03:51:00,
2013-12-17 22:56:00,24.4,22.2,30.46,WSW,257,1.2,1.2,91,0.00,-SN,,0.00,WeatherDisplay:10.37,2013-12-18 03:56:00,
2013-12-17 23:01:00,24.4,22.2,30.46,WSW,253,1.2,1.2,91,0.00,OVC,,0.00,WeatherDisplay:10.37,2013-12-18 04:01:00,
2013-12-17 23:06:00,24.4,22.2,30.46,WSW,253,1.2,0.0,91,0.00,OVC,,0.00,WeatherDisplay:10.37,2013-12-18 04:06:00,
2013-12-17 23:11:00,24.3,22.1,30.46,WSW,244,0.0,0.0,91,0.00,OVC,,0.00,WeatherDisplay:10.37,2013-12-18 04:11:00,
2013-12-17 23:16:00,24.2,22.0,30.46,WSW,245,1.2,1.2,91,0.00,OVC,,0.00,WeatherDisplay:10.37,2013-12-18 04:16:00,
2013-12-17 23:21:00,24.2,22.0,30.46,WSW,245,1.2,0.0,91,0.00,OVC,,0.00,WeatherDisplay:10.37,2013-12-18 04:21:00,
2013-12-17 23:26:00,24.2,22.0,30.46,WSW,243,1.2,1.2,91,0.00,OVC,,0.00,WeatherDisplay:10.37,2013-12-18 04:26:00,
2013-12-17 23:31:00,24.1,21.9,30.45,WSW,243,0.0,0.0,91,0.00,OVC,,0.00,WeatherDisplay:10.37,2013-12-18 04:31:00,
2013-12-17 23:36:00,24.1,22.1,30.45,WSW,243,0.0,0.0,92,0.00,OVC,,0.00,WeatherDisplay:10.37,2013-12-18 04:36:00,
2013-12-17 23:41:00,24.0,22.0,30.45,WSW,243,0.0,0.0,92,0.00,OVC,,0.00,WeatherDisplay:10.37,2013-12-18 04:41:00,
2013-12-17 23:46:00,23.9,21.9,30.45,WSW,243,0.0,0.0,92,0.00,OVC,,0.00,WeatherDisplay:10.37,2013-12-18 04:46:00,
2013-12-17 23:51:00,23.9,21.9,30.45,WSW,243,0.0,0.1,92,0.00,OVC,,0.00,WeatherDisplay:10.37,2013-12-18 04:51:00,
2013-12-17 23:56:00,23.8,21.8,30.45,WSW,243,0.0,0.0,92,0.00,OVC,,0.00,WeatherDisplay:10.37,2013-12-18 04:56:00,